Location: El Para�so
(10.4896°N, 66.9245°W)
Time: 19:55:16
(UTC+00:00)

Cosmos 2082 Rocket - Pass Details

Date: 08 August 2020
Orbit: 835 x 852 km, 71.0° (Epoch: 01 October)

Event Time Altitude Azimuth Distance (km) Brightness Sun altitude
Rises 23:15:46 0° 153° (SSE) 3,408 4.9 -7.2°
Reaches altitude 10° 23:20:16 10° 120° (ESE) 2,471 4.0 -8.2°
Maximum altitude 23:21:55 11° 103° (ESE) 2,381 3.9 -8.6°
Drops below altitude 10° 23:23:34 10° 85° (E) 2,470 4.1 -9.0°
Sets 23:28:01 0° 53° (NE) 3,402 5.0 -10.0°
